Lid_Strength_Index
-2 -2 -2 -1 -1 -2 -2 -2 -1 -1 -1 -1 -1 -1 -1 -1 -1 0 3 1 -0 -2 -1 1 1 2 2 4 3 4 11 12 11 10 9 7 9 8 7 9 7 5 5 4 2
-1 -2 -2 -2 -1 -1 -2 -2 -1 -1 -1 -1 -1 -1 -1 -1 1 3 -1 -2 -2 -2 1 3 4 3 5 5 5 8 11 10 7 7 8 7 7 7 8 9 9 7 4 3 3
-1 -1 -1 -2 -1 -1 -2 -1 -2 -1 -1 -1 -1 -1 -1 -1 4 5 -3 -3 -2 -2 0 1 2 4 6 5 6 7 11 7 7 6 6 7 7 6 7 8 7 8 5 4 4
-1 -1 -1 -1 -1 -2 -1 -1 -1 -1 -1 -1 -1 -1 -1 1 12 2 -2 -1 -2 -1 1 3 4 6 8 8 6 9 7 6 6 5 6 7 6 7 7 7 4 5 5 4 4
-1 -1 -1 -1 -1 -1 -1 -2 -1 -1 -1 -1 -1 -1 1 5 5 -1 -2 -1 -1 1 3 4 5 6 9 7 6 8 7 6 5 6 6 6 7 7 7 5 4 4 4 5 4
-1 -1 -1 -1 -1 -1 -1 -1 -1 -1 -1 -1 -1 -1 3 8 1 -0 -1 -0 1 2 3 3 5 4 6 7 8 6 7 7 6 6 6 7 7 7 6 5 5 5 5 5 5
-1 -1 -1 -1 -1 -1 -1 -1 -1 -1 -1 -1 -1 0 4 6 0 -0 -0 1 0 1 4 2 2 5 5 8 5 6 9 8 7 7 7 6 9 9 5 5 6 6 6 5 5
-1 -1 -1 -1 -1 -1 -1 -1 -1 -1 -1 -1 -1 2 7 2 1 0 -0 1 0 0 1 1 2 4 6 5 7 9 10 13 8 7 7 8 12 8 6 6 6 6 5 6 5
-1 -1 -1 -1 -1 -1 -1 -1 -1 -1 -1 -0 2 4 8 1 3 1 0 3 2 1 1 1 3 6 6 10 12 11 15 13 11 7 7 9 12 7 6 6 7 7 6 5 6
-1 -1 -1 -1 -1 -1 -1 -1 -1 -1 -0 1 2 7 6 7 3 1 0 1 3 4 5 5 7 10 9 12 16 14 14 12 12 9 8 10 10 8 6 6 7 6 6 6 5
-1 -1 -1 -1 -1 -1 -0 1 5 6 4 7 7 6 5 4 2 3 1 3 4 6 10 8 11 13 11 10 10 10 11 12 10 8 10 10 10 8 7 7 7 7 6 5 5
-1 -1 -1 -1 -1 -1 -0 4 5 5 8 4 5 5 4 3 6 4 2 6 7 10 8 10 13 9 8 9 10 11 12 12 9 8 10 10 10 9 8 7 7 7 6 6 5
-1 -1 -1 -1 -1 -0 2 3 2 2 8 7 5 6 5 3 6 6 4 6 8 10 10 12 10 8 9 10 11 11 12 12 12 9 9 10 12 11 9 8 7 6 6 5 5
-1 -1 -1 -1 1 1 3 1 1 2 12 10 8 7 4 4 8 3 3 6 8 10 9 10 8 9 10 11 10 14 9 10 11 12 17 11 18 12 10 10 9 8 8 7 6
-1 -1 -1 -1 2 3 2 1 2 4 20 10 8 3 4 7 6 6 3 5 9 9 9 12 10 11 12 11 9 12 9 10 10 12 13 13 16 15 11 11 9 8 7 7 7
-1 -1 -1 0 1 1 1 2 5 13 19 12 8 9 8 8 7 6 6 4 5 8 9 10 7 8 9 8 8 8 10 10 12 14 19 15 15 16 14 11 10 8 7 7 6
-1 -1 -0 -0 4 -0 1 4 14 18 10 13 11 9 10 10 9 9 10 11 12 15 14 11 10 8 7 10 9 10 13 19 20 20 20 12 15 14 11 9 8 7 7 7 6
-1 -1 -0 0 -1 0 3 10 17 13 13 9 9 9 12 10 10 10 11 13 10 10 13 15 17 10 8 10 12 12 13 18 22 21 19 13 18 14 9 7 7 7 6 6 7
-1 1 1 1 -0 1 7 15 15 13 10 11 10 13 13 10 10 11 11 12 10 9 13 14 14 8 8 8 9 12 15 11 16 16 19 16 14 10 8 9 8 7 7 7 7
2 3 3 0 1 3 10 13 12 9 8 9 14 12 15 13 12 12 12 9 10 8 7 10 15 9 8 8 8 10 9 16 15 22 22 17 16 14 11 9 8 8 8 8 8
3 7 2 0 2 8 13 12 10 8 7 10 12 13 12 13 11 13 12 9 8 9 8 9 12 12 9 12 13 12 13 13 13 15 20 20 16 10 10 9 9 8 8 9 9
5 10 2 2 9 10 12 11 7 9 7 9 9 10 11 11 12 12 12 10 7 7 11 9 12 16 13 9 8 9 11 12 17 19 16 17 17 9 9 8 8 8 8 8 7
8 7 2 3 13 12 10 10 9 9 9 10 10 9 8 11 13 11 10 7 7 8 10 9 14 18 17 13 11 12 11 10 11 13 17 19 16 9 9 9 7 8 8 7 7
6 10 7 6 7 10 11 11 11 8 8 8 9 8 9 11 10 11 11 8 7 7 7 8 12 14 16 15 12 14 13 11 12 16 15 15 14 10 9 9 8 8 7 7 7
7 9 8 11 10 9 10 10 12 12 8 8 9 10 10 13 12 12 10 9 8 7 8 9 15 12 12 11 12 13 13 12 14 13 16 13 13 10 9 8 8 7 7 7 7
9 8 7 9 8 9 9 12 12 11 10 11 10 9 9 12 11 12 10 10 11 9 9 9 14 13 15 12 11 15 12 12 12 12 12 12 12 8 8 7 7 7 7 8 8
4 4 7 8 9 10 10 11 11 9 9 8 9 9 10 9 7 8 7 7 8 9 10 11 13 14 17 13 14 17 13 12 12 11 12 15 11 8 8 8 8 8 9 9 9